Sand Point, AK

4:23 AM AKST on December 10, 2016 (GMT -0900)
Sand Point

Weather History for PASD - April, 2013

Change the Weather History Date:

Saturday, April 27, 2013

  Actual Average Record
Temperature  
Mean Temperature 34 °F -  
Max Temperature 37 °F 40 °F 50 °F (1981)
Min Temperature 32 °F 33 °F 22 °F (1985)
Degree Days  
Heating Degree Days 30    
Moisture  
Dew Point 29 °F    
Average Humidity 81    
Maximum Humidity 93    
Minimum Humidity 65    
Precipitation  
Precipitation 0.00 in - - ()
Sea Level Pressure  
Sea Level Pressure 30.07 in    
Wind  
Wind Speed 18 mph (NW)    
Max Wind Speed 34 mph    
Max Gust Speed 43 mph    
Visibility 10 miles    
Events Snow    
Averages and records for this station are not official NWS values.
T = Trace of Precipitation, MM = Missing Value Source: NWS Daily Summary

Daily Weather History Graph

Daily Weather History Graph

Search for Another Location

Airport or City:

Trip Planner

Search our weather history database for the weather conditions in past years. The results will help you decide how hot, cold, wet, or windy it might be!

Date:

Astronomy

Apr. 27, 2013 Rise Set
Actual Time 7:08 AM AKDT 10:12 PM AKDT
Civil Twilight 6:26 AM AKDT 10:54 PM AKDT
Nautical Twilight 5:29 AM AKDT 11:51 PM AKDT
Astronomical Twilight 4:12 AM AKDT 1:11 AM AKDT
Moon 12:02 AM AKDT (4/27) 8:20 AM AKDT (4/27)
Length of Visible Light 16h 28m
Length of Day
15h 03m
Waning Gibbous, 94% of the Moon is Illuminated
Apr 27
Waning Gibbous
May 2
Last Quarter
May 9
New
May 17
First Quarter
May 24
Full

Hourly Weather History & Observations

Time (AKDT) Temp. Windchill Dew Point Humidity Pressure Visibility Wind Dir Wind Speed Gust Speed Precip Events Conditions
12:36 AM 37.4 °F 28.9 °F 26.6 °F 65% 29.98 in 10.0 mi WNW 13.8 mph - N/A   Overcast
12:56 AM 37.4 °F 29.3 °F 28.4 °F 70% 29.97 in 10.0 mi WNW 12.7 mph - N/A   Scattered Clouds
1:16 AM 37.4 °F 30.3 °F 28.4 °F 70% 29.96 in 10.0 mi WNW 10.4 mph 17.3 mph N/A   Clear
1:36 AM 37.4 °F 29.8 °F 28.4 °F 70% 29.96 in 10.0 mi WNW 11.5 mph 26.5 mph N/A   Scattered Clouds
1:56 AM 37.4 °F 27.2 °F 30.2 °F 75% 29.95 in 10.0 mi NW 19.6 mph 27.6 mph N/A   Partly Cloudy
2:16 AM 37.4 °F 27.5 °F 30.2 °F 75% 29.96 in 10.0 mi WNW 18.4 mph 32.2 mph N/A   Mostly Cloudy
2:36 AM 37.4 °F 27.2 °F 32.0 °F 81% 29.96 in 10.0 mi WNW 19.6 mph 26.5 mph N/A   Mostly Cloudy
2:56 AM 37.4 °F 27.5 °F 32.0 °F 81% 29.96 in 10.0 mi NW 18.4 mph 24.2 mph N/A   Scattered Clouds
3:16 AM 37.4 °F 26.4 °F 32.0 °F 81% 29.96 in 10.0 mi NW 23.0 mph 27.6 mph N/A   Mostly Cloudy
3:36 AM 37.4 °F 27.5 °F 33.8 °F 87% 29.96 in 10.0 mi WNW 18.4 mph 24.2 mph N/A   Mostly Cloudy
3:56 AM 35.6 °F 26.2 °F 33.8 °F 93% 29.96 in 10.0 mi NW 15.0 mph - N/A   Mostly Cloudy
4:16 AM 35.6 °F 24.5 °F 33.8 °F 93% 29.96 in 10.0 mi WNW 20.7 mph - N/A   Overcast
4:36 AM 35.6 °F 25.2 °F 33.8 °F 93% 29.94 in 10.0 mi NW 18.4 mph - N/A   Overcast
4:56 AM 35.6 °F 24.5 °F 32.0 °F 87% 29.96 in 10.0 mi NW 20.7 mph - N/A   Mostly Cloudy
5:16 AM 35.6 °F 26.2 °F 32.0 °F 87% 29.96 in 10.0 mi NW 15.0 mph - N/A   Partly Cloudy
5:36 AM 35.6 °F 25.9 °F 32.0 °F 87% 29.98 in 10.0 mi NW 16.1 mph - N/A   Partly Cloudy
5:56 AM 35.6 °F 24.8 °F 30.2 °F 81% 29.99 in 10.0 mi NNW 19.6 mph 23.0 mph N/A   Mostly Cloudy
6:36 AM 33.8 °F 23.2 °F 30.2 °F 87% 29.98 in 10.0 mi NW 17.3 mph - N/A   Partly Cloudy
7:16 AM 33.8 °F 25.8 °F 30.2 °F 87% 30.00 in 10.0 mi NNW 10.4 mph 16.1 mph N/A   Mostly Cloudy
7:36 AM 33.8 °F 25.3 °F 30.2 °F 87% 30.01 in 10.0 mi NNW 11.5 mph - N/A   Mostly Cloudy
7:56 AM 33.8 °F 27.0 °F 30.2 °F 87% 30.02 in 10.0 mi NW 8.1 mph - N/A   Mostly Cloudy
8:36 AM 33.8 °F 26.4 °F 30.2 °F 87% 30.03 in 10.0 mi NW 9.2 mph - N/A   Mostly Cloudy
8:56 AM 33.8 °F 26.4 °F 30.2 °F 87% 30.03 in 10.0 mi WNW 9.2 mph - N/A   Clear
9:16 AM 35.6 °F 26.2 °F 30.2 °F 81% 30.03 in 10.0 mi NW 15.0 mph - N/A   Mostly Cloudy
9:36 AM 35.6 °F 25.2 °F 30.2 °F 81% 30.04 in 10.0 mi NW 18.4 mph - N/A   Mostly Cloudy
9:56 AM 35.6 °F 25.5 °F 30.2 °F 81% 30.04 in 10.0 mi NNW 17.3 mph - N/A   Mostly Cloudy
10:16 AM 35.6 °F 25.2 °F 30.2 °F 81% 30.05 in 10.0 mi NNW 18.4 mph 23.0 mph N/A   Mostly Cloudy
10:36 AM 37.4 °F 26.9 °F 30.2 °F 75% 30.05 in 10.0 mi NNW 20.7 mph - N/A   Mostly Cloudy
10:56 AM 35.6 °F 25.5 °F 32.0 °F 87% 30.05 in 10.0 mi NNW 17.3 mph - N/A   Mostly Cloudy
11:36 AM 35.6 °F 22.1 °F 30.2 °F 81% 30.06 in 10.0 mi NNW 32.2 mph 38.0 mph N/A   Mostly Cloudy
11:56 AM 35.6 °F 22.3 °F 28.4 °F 75% 30.07 in 10.0 mi NNW 31.1 mph 40.3 mph N/A   Mostly Cloudy
12:16 PM 33.8 °F 22.2 °F 28.4 °F 81% 30.10 in 10.0 mi North 20.7 mph 29.9 mph N/A   Mostly Cloudy
12:36 PM 33.8 °F 25.3 °F 28.4 °F 81% 30.13 in 10.0 mi NNE 11.5 mph 24.2 mph N/A   Mostly Cloudy
12:56 PM 33.8 °F 22.5 °F 30.2 °F 87% 30.12 in 10.0 mi North 19.6 mph 24.2 mph N/A Snow Light Snow
1:16 PM 33.8 °F 21.9 °F 30.2 °F 87% 30.13 in 10.0 mi North 21.9 mph 31.1 mph N/A   Mostly Cloudy
1:36 PM 33.8 °F 21.0 °F 28.4 °F 81% 30.13 in 10.0 mi North 25.3 mph 34.5 mph N/A   Mostly Cloudy
1:56 PM 33.8 °F 21.0 °F 26.6 °F 75% 30.14 in 10.0 mi NNW 25.3 mph 33.4 mph N/A   Mostly Cloudy
2:56 PM 32.0 °F 18.9 °F 26.6 °F 80% 30.17 in 10.0 mi NNW 24.2 mph 33.4 mph N/A   Mostly Cloudy
3:16 PM 32.0 °F 19.2 °F 26.6 °F 80% 30.18 in 10.0 mi North 23.0 mph 33.4 mph N/A   Mostly Cloudy
3:36 PM 33.8 °F 20.5 °F 26.6 °F 75% 30.18 in 10.0 mi NNW 27.6 mph 34.5 mph N/A   Mostly Cloudy
3:56 PM 32.0 °F 17.4 °F 26.6 °F 80% 30.17 in 10.0 mi NNW 31.1 mph 35.7 mph N/A   Mostly Cloudy
4:16 PM 33.8 °F 20.3 °F 26.6 °F 75% 30.17 in 10.0 mi NNW 28.8 mph 36.8 mph N/A   Mostly Cloudy
4:36 PM 33.8 °F 19.2 °F 26.6 °F 75% 30.17 in 10.0 mi NNW 34.5 mph 39.1 mph N/A   Mostly Cloudy
4:56 PM 33.8 °F 19.2 °F 26.6 °F 75% 30.17 in 10.0 mi North 34.5 mph 41.4 mph N/A   Scattered Clouds
5:16 PM 33.8 °F 20.3 °F 28.4 °F 81% 30.19 in 10.0 mi NNW 28.8 mph 41.4 mph N/A   Scattered Clouds
5:50 PM 33.8 °F 20.8 °F 26.6 °F 75% 30.20 in 10.0 mi North 26.5 mph 42.6 mph N/A   Scattered Clouds
6:56 PM 33.8 °F 22.2 °F 26.6 °F 75% 30.23 in 10.0 mi NNW 20.7 mph - N/A   Scattered Clouds
7:16 PM 33.8 °F 22.2 °F 26.6 °F 75% 30.25 in 10.0 mi North 20.7 mph - N/A   Scattered Clouds
8:36 PM 33.8 °F 23.2 °F 26.6 °F 75% 30.26 in 10.0 mi NW 17.3 mph 28.8 mph N/A   Partly Cloudy
8:56 PM 33.8 °F 24.3 °F 26.6 °F 75% 30.27 in 10.0 mi NW 13.8 mph 27.6 mph N/A   Clear
10:36 PM 32.0 °F 21.2 °F 26.6 °F 80% 30.31 in 10.0 mi NNW 16.1 mph 21.9 mph N/A   Clear